Weather History for Fargo, ND

Change the Weather History Date:

Tuesday, December 30, 2014

  Actual Average Record
Temperature  
Mean Temperature -3 °F 10 °F  
Max Temperature 4 °F 19 °F 42 °F (1929)
Min Temperature -10 °F 2 °F -29 °F (1976)
Degree Days  
Heating Degree Days 68 55  
Month to date heating degree days 1299 1524  
Since 1 July heating degree days 3256 3486  
Cooling Degree Days 0 0  
Month to date cooling degree days 0 0  
Year to date cooling degree days 544 551  
Moisture  
Dew Point -12 °F    
Average Humidity 64    
Maximum Humidity 72    
Minimum Humidity 56    
Precipitation  
Precipitation 0.00 in 0.02 in 0.63 in (1972)
Month to date precipitation 0.25 0.80  
Year to date precipitation 20.20 22.58  
Snow  
Snow 0.00 in 0.40 in 8.80 in (2008)
Month to date snowfall 0.9 10.8  
Since 1 July snowfall 4.5 19.4  
Snow Depth 0.00 in    
Sea Level Pressure  
Sea Level Pressure 30.81 in    
Wind  
Wind Speed 10 mph (West)    
Max Wind Speed 16 mph    
Max Gust Speed 19 mph    
Visibility 10 miles    
Events      
T = Trace of Precipitation, MM = Missing Value Source: NWS Daily Summary

Daily Weather History Graph

Daily Weather History Graph

Search for Another Location

Airport:

Trip Planner

Search our weather history database for the weather conditions in past years. The results will help you decide how hot, cold, wet, or windy it might be!

Date:

Astronomy

Dec. 30, 2014 Rise Set
Actual Time 8:12 AM CST 4:47 PM CST
Civil Twilight 7:37 AM CST 5:22 PM CST
Nautical Twilight 6:58 AM CST 6:01 PM CST
Astronomical Twilight 6:21 AM CST 6:38 PM CST
Moon 1:13 PM CST (12/30) 2:22 AM CST (12/30)
Length of Visible Light 9h 45m
Length of Day
8h 34m
Waxing Gibbous, 71% of the Moon is Illuminated
Dec 30
Waxing Gibbous
Jan 4
Full
Jan 13
Last Quarter
Jan 20
New
Jan 26
First Quarter

Hourly Weather History & Observations

Time (CST) Temp. Windchill Dew Point Humidity Pressure Visibility Wind Dir Wind Speed Gust Speed Precip Events Conditions
12:53 AM -7.1 °F -22.8 °F -14.1 °F 72% 30.87 in 10.0 mi WNW 8.1 mph - N/A   Clear
1:53 AM -7.1 °F -21.4 °F -15.0 °F 68% 30.87 in 10.0 mi WNW 6.9 mph - N/A   Clear
2:53 AM -7.1 °F -21.4 °F -15.0 °F 68% 30.89 in 10.0 mi NW 6.9 mph - N/A   Clear
3:53 AM -8.0 °F -22.5 °F -16.1 °F 68% 30.90 in 10.0 mi WNW 6.9 mph - N/A   Clear
4:53 AM -9.0 °F -23.8 °F -17.0 °F 68% 30.90 in 10.0 mi WNW 6.9 mph - N/A   Clear
5:53 AM -9.0 °F -20.4 °F -17.0 °F 68% 30.89 in 10.0 mi WNW 4.6 mph - N/A   Clear
6:53 AM -9.0 °F -25.2 °F -16.1 °F 71% 30.91 in 10.0 mi WNW 8.1 mph - N/A   Clear
7:53 AM -7.1 °F -23.9 °F -15.0 °F 68% 30.92 in 10.0 mi NW 9.2 mph - N/A   Mostly Cloudy
8:53 AM -6.0 °F -24.6 °F -14.1 °F 68% 30.92 in 10.0 mi NNW 11.5 mph - N/A   Overcast
9:53 AM -4.0 °F -22.1 °F -11.9 °F 69% 30.93 in 10.0 mi NW 11.5 mph - N/A   Overcast
10:53 AM -2.9 °F -20.8 °F -11.9 °F 65% 30.93 in 7.0 mi NW 11.5 mph - N/A   Partly Cloudy
11:05 AM -2.2 °F -19.9 °F -11.2 °F 66% 30.83 in 7.0 mi NNW 11.5 mph - N/A   Mostly Cloudy
11:26 AM -0.9 °F -19.1 °F -11.0 °F 62% 30.82 in 10.0 mi NNW 12.7 mph - N/A   Partly Cloudy
11:53 AM -0.9 °F -19.1 °F -11.0 °F 62% 30.90 in 8.0 mi WNW 12.7 mph - N/A   Mostly Cloudy
12:53 PM 1.0 °F -15.8 °F -9.9 °F 60% 30.87 in 10.0 mi WNW 11.5 mph - N/A   Overcast
1:35 PM 1.9 °F -16.2 °F -9.9 °F 58% 30.76 in 10.0 mi WNW 13.8 mph 19.6 mph N/A   Scattered Clouds
1:53 PM 1.0 °F -16.6 °F -9.9 °F 60% 30.85 in 10.0 mi West 12.7 mph - N/A   Mostly Cloudy
2:28 PM 1.9 °F -15.5 °F -9.9 °F 58% 30.74 in 10.0 mi West 12.7 mph - N/A   Partly Cloudy
2:53 PM 3.0 °F -15.5 °F -9.0 °F 57% 30.82 in 10.0 mi West 15.0 mph - N/A   Partly Cloudy
3:12 PM 3.9 °F -13.7 °F -8.0 °F 58% 30.72 in 10.0 mi West 13.8 mph - N/A   Mostly Cloudy
3:53 PM 3.9 °F -13.7 °F -8.0 °F 58% 30.80 in 10.0 mi West 13.8 mph - N/A   Mostly Cloudy
4:08 PM 3.0 °F -12.5 °F -8.0 °F 60% 30.70 in 10.0 mi West 10.4 mph - N/A   Partly Cloudy
4:53 PM 1.9 °F -15.5 °F -9.0 °F 60% 30.79 in 10.0 mi West 12.7 mph - N/A   Clear
5:53 PM -0.9 °F -15.3 °F -9.9 °F 66% 30.78 in 10.0 mi WSW 8.1 mph - N/A   Clear
6:53 PM -2.0 °F -17.7 °F -9.9 °F 69% 30.75 in 10.0 mi WSW 9.2 mph - N/A   Clear
7:53 PM -2.9 °F -19.8 °F -9.9 °F 72% 30.71 in 10.0 mi SW 10.4 mph - N/A   Clear
8:53 PM -2.0 °F -20.5 °F -9.9 °F 69% 30.68 in 10.0 mi SW 12.7 mph - N/A   Clear
9:53 PM -2.0 °F -20.5 °F -9.0 °F 72% 30.63 in 10.0 mi SW 12.7 mph - N/A   Clear
10:53 PM -2.0 °F -21.2 °F -9.0 °F 72% 30.59 in 10.0 mi SSW 13.8 mph - N/A   Clear
11:53 PM -0.9 °F -19.1 °F -8.0 °F 72% 30.54 in 10.0 mi SSW 12.7 mph - N/A   Clear